GFSFLT1_sfc_thetae_000.txt.gz
Theta_e
332 332 337 339 341 342 346 349 354 354 355 355 355 355 355 353 355 350 351 352 347 344 344 346 350 349 349 348 348 348 348 345 344
330 332 334 338 342 345 347 349 352 354 355 356 355 352 358 356 355 353 352 353 352 345 353 343 346 347 347 348 347 347 348 343 342
326 334 335 336 340 345 350 350 353 353 356 356 352 353 352 352 352 352 353 352 350 350 351 350 348 347 346 346 345 345 343 343 340
324 327 336 338 341 347 352 350 350 349 351 353 350 351 353 351 347 348 350 348 348 349 352 351 349 347 345 344 342 344 342 342 342
327 330 335 342 342 348 350 349 347 345 344 346 347 349 352 350 349 349 349 348 348 350 349 350 348 347 345 344 342 342 340 339 340
334 337 344 344 343 344 348 349 347 343 341 341 343 347 343 347 348 347 348 349 349 349 348 346 346 346 343 342 342 341 341 339 338
331 338 339 345 344 344 347 348 346 344 340 340 341 341 342 346 347 348 347 349 350 348 348 347 347 345 344 342 341 341 339 338 337
329 334 338 345 343 345 347 347 345 344 341 345 342 343 345 347 349 349 349 348 348 347 347 346 347 344 343 343 341 336 341 338 338
327 330 331 340 345 344 348 347 345 342 341 344 348 341 343 347 348 347 346 348 348 347 347 348 345 343 342 342 337 329 332 333 336
328 330 332 334 343 343 351 347 345 341 344 345 345 346 346 346 347 346 347 347 347 347 348 346 345 343 342 340 340 324 326 330 331
327 330 332 335 338 346 350 347 344 346 344 344 346 345 345 345 346 345 347 347 346 347 347 345 342 341 341 340 336 322 321 325 331
328 334 340 341 337 342 349 346 347 347 342 343 344 343 344 345 345 345 346 345 345 347 346 343 342 341 340 337 337 321 319 322 330
330 332 339 343 345 347 349 348 348 344 341 343 341 342 344 346 347 347 346 346 344 342 347 341 336 336 339 333 339 319 318 323 322
333 337 339 344 348 348 350 350 347 341 341 342 344 345 346 347 348 350 350 350 344 343 338 336 338 338 337 338 335 330 320 317 324
335 337 339 343 348 348 351 352 349 342 343 348 355 351 349 351 352 343 341 349 347 341 342 338 335 335 332 330 329 318 318 317 316
337 338 340 342 346 351 351 351 355 352 353 354 356 354 353 353 351 347 348 345 340 340 338 334 336 330 326 325 326 329 318 315 313
340 340 341 343 347 346 347 355 354 355 354 354 350 351 352 351 347 347 341 341 338 332 335 331 329 323 328 327 328 318 315 317 320
341 343 339 340 340 335 332 333 330 336 343 343 347 348 347 347 342 340 337 320 318 326 311 312 321 318 320 316 318 309 301 301 309
342 340 341 335 335 332 327 334 337 340 340 346 345 342 338 337 336 326 331 324 317 301 300 297 296 297 305 309 301 297 296 296 296
332 339 338 334 331 337 333 334 340 339 340 339 340 338 338 333 326 331 330 330 330 322 308 301 299 299 299 299 298 297 296 297 298

GFSFLT1_sfc_thetae_003.txt.gz
Theta_e
324 328 331 332 334 336 342 344 349 350 345 343 340 339 335 333 332 331 334 338 333 328 329 332 334 332 335 334 336 336 336 333 332
321 324 330 330 333 336 341 342 349 348 346 345 342 340 337 335 335 334 335 334 332 331 335 333 333 333 334 335 336 336 335 334 332
322 324 329 331 332 335 341 343 347 348 348 345 345 342 341 340 339 336 335 334 332 333 331 335 333 334 335 335 334 334 333 330 330
319 326 326 332 333 337 341 344 348 348 348 346 344 343 340 339 337 336 336 334 333 334 336 336 335 335 334 333 333 334 332 330 331
318 323 327 331 336 339 341 343 346 346 348 345 342 342 341 333 331 334 334 333 333 333 332 333 333 332 332 334 334 333 332 329 331
321 321 324 329 336 339 342 343 342 344 345 343 340 339 338 334 334 333 332 333 333 333 332 331 331 332 332 331 332 332 332 332 331
324 325 333 330 336 341 343 343 340 339 340 340 339 339 337 334 336 335 334 334 334 334 333 332 334 334 332 332 332 331 332 331 329
319 326 330 334 332 342 344 342 339 337 337 338 337 335 334 335 336 336 336 335 336 334 333 334 334 333 332 332 334 334 329 329 328
317 319 322 336 336 336 342 342 337 336 333 334 335 333 335 339 339 337 336 335 335 333 333 333 334 330 330 330 333 326 329 327 323
317 320 321 320 333 336 340 341 338 334 333 336 334 335 335 337 337 336 336 336 336 336 334 331 329 330 331 329 329 325 324 327 321
318 319 320 320 323 338 341 340 338 336 337 334 334 333 335 336 336 336 336 336 335 335 332 330 330 330 328 329 330 325 322 324 320
320 323 325 326 326 341 341 338 336 336 335 333 335 333 334 336 336 335 335 336 335 334 333 331 331 331 329 328 327 319 319 319 320
324 325 327 328 332 341 340 339 337 337 335 336 335 335 337 338 337 336 336 337 335 334 332 331 328 324 328 327 323 320 318 318 319
323 323 328 330 333 339 340 340 341 336 334 334 337 337 337 339 339 338 339 338 335 331 330 322 322 326 327 327 322 321 316 314 316
323 323 329 332 337 342 343 342 340 335 334 337 338 337 337 339 339 341 341 332 332 330 330 325 324 323 324 322 322 318 317 315 314
320 326 329 335 340 340 341 342 336 332 329 324 323 336 338 340 340 335 332 329 330 328 325 325 324 321 319 318 320 317 314 312 313
323 328 329 337 336 327 324 329 326 324 325 326 325 323 327 335 332 331 330 327 324 322 317 318 320 318 315 316 313 307 307 309 309
329 331 331 332 327 325 326 330 329 326 325 325 321 321 335 333 334 326 315 309 311 317 305 308 313 310 309 309 306 304 300 301 304
330 327 327 326 326 328 328 325 324 327 326 329 331 333 330 326 326 320 317 310 305 300 300 297 297 298 304 302 301 298 297 296 295
329 329 331 333 329 326 328 325 325 332 331 329 332 328 325 321 318 320 319 313 310 305 303 299 297 297 298 300 299 297 296 297 296

GFSFLT1_sfc_thetae_006.txt.gz
Theta_e
330 330 332 334 334 336 342 346 347 349 345 342 334 331 330 329 329 327 327 330 330 324 326 330 331 330 331 331 331 332 332 331 329
325 329 331 332 335 337 341 344 347 349 343 340 336 333 331 329 329 332 333 332 329 326 330 330 330 331 331 331 333 331 331 330 332
320 327 331 332 334 336 342 343 347 350 344 340 337 336 332 331 331 332 332 331 329 331 329 330 329 330 330 331 331 331 329 328 328
319 323 328 330 333 335 341 343 346 348 345 342 338 337 334 333 334 332 331 330 330 330 330 332 333 332 332 330 330 331 330 329 328
319 321 326 329 331 333 338 340 345 346 345 343 341 339 337 336 336 333 331 330 330 330 331 330 329 330 330 330 331 330 329 329 329
316 320 322 328 329 331 335 339 343 345 345 344 342 341 337 331 329 329 330 330 330 330 329 328 328 327 326 328 328 328 329 328 329
317 320 322 328 329 330 335 338 342 344 345 345 341 340 337 330 328 328 330 330 330 330 329 328 328 327 329 330 329 328 328 328 328
318 318 324 324 330 333 335 338 341 343 344 342 339 338 335 332 331 331 330 330 331 330 330 330 329 330 330 329 329 331 330 328 327
316 318 324 328 328 334 336 338 340 341 342 341 338 336 335 334 333 332 332 333 332 330 330 329 330 330 329 327 329 328 327 325 322
314 316 318 323 333 334 339 340 340 337 338 338 335 335 334 333 334 333 334 334 331 330 330 328 329 330 327 327 327 325 323 328 320
314 316 316 316 320 330 340 343 341 336 334 335 334 333 332 334 334 333 334 332 331 330 330 331 330 327 327 327 326 323 322 324 319
315 315 318 320 322 328 335 341 338 333 333 334 332 331 332 333 335 333 332 330 330 332 330 328 327 328 326 324 326 321 318 319 318
320 322 323 324 324 336 335 335 335 333 332 331 331 332 333 334 334 333 331 332 332 333 331 330 329 326 325 323 324 319 316 317 317
320 322 325 327 333 337 334 335 334 331 330 330 332 333 332 332 334 333 332 333 333 330 328 324 323 325 325 325 322 321 314 313 314
316 317 321 326 329 334 335 334 334 331 328 328 328 325 325 326 328 334 336 334 331 327 325 323 322 323 321 319 316 313 313 313 313
318 319 321 325 328 333 334 335 330 324 321 325 325 322 322 326 322 322 327 330 328 325 322 320 319 320 316 314 313 310 309 310 310
327 328 325 331 329 327 325 326 325 322 324 324 322 321 321 325 321 320 327 327 326 323 320 316 316 314 313 310 307 306 306 307 306
326 325 325 326 326 325 321 322 322 323 324 322 321 322 322 321 322 325 319 314 312 315 305 309 311 309 310 312 305 305 300 300 303
324 322 323 325 325 325 322 321 321 322 324 322 319 317 319 323 325 320 313 308 306 301 299 297 297 300 303 302 301 298 297 295 295
322 323 324 325 325 323 324 323 323 325 325 323 322 323 324 322 320 318 311 307 307 306 304 300 297 296 298 299 298 296 295 295 295

GFSFLT1_sfc_thetae_012.txt.gz
Theta_e
327 330 333 333 334 335 336 339 340 342 342 343 346 347 346 343 338 332 332 332 329 329 331 334 335 334 334 331 333 334 335 334 333
323 328 331 334 335 336 337 338 340 342 343 344 345 346 344 336 332 328 329 329 330 330 332 333 333 333 333 332 333 335 334 333 333
322 326 330 334 336 337 338 339 341 343 345 344 345 345 341 335 330 328 328 328 330 328 329 332 333 332 332 333 333 334 333 332 332
320 323 328 332 336 339 339 340 341 342 344 345 345 343 338 334 328 328 329 330 332 330 330 331 332 332 332 332 332 333 332 331 332
318 323 327 331 335 338 338 339 340 342 344 345 347 344 337 333 330 330 330 331 332 331 331 330 331 332 332 332 333 333 332 332 333
317 322 325 329 331 334 337 337 340 342 344 345 347 343 335 332 330 330 331 332 331 330 331 330 332 333 333 332 332 331 332 332 331
316 320 324 326 328 331 334 335 337 341 343 345 346 341 336 333 331 331 332 332 331 331 330 330 331 332 331 330 329 330 332 332 331
317 317 318 324 327 329 331 332 334 338 341 345 345 339 336 335 334 333 333 332 332 331 330 331 332 332 330 330 330 331 332 332 331
317 318 319 320 323 326 327 329 331 336 340 343 345 340 338 338 335 334 334 334 333 332 331 331 330 330 330 330 331 328 328 332 332
317 318 319 318 321 324 325 327 331 334 338 343 344 341 340 337 332 333 333 333 332 332 331 332 331 331 331 331 332 325 324 327 332
314 316 319 320 321 325 327 328 330 334 338 341 342 341 339 334 333 332 332 333 333 332 331 331 330 330 331 330 332 322 321 325 329
315 319 320 324 325 324 326 330 333 335 338 340 340 338 336 335 334 333 334 333 331 332 332 331 331 333 330 328 330 321 320 323 328
315 317 318 319 320 322 326 329 335 335 335 336 337 336 336 336 336 337 334 333 332 332 332 332 332 329 329 325 330 322 318 320 325
318 318 320 323 323 325 330 333 335 332 332 333 334 334 335 335 335 333 332 331 333 332 330 328 328 328 328 329 329 327 316 313 323
324 324 326 327 325 324 333 334 333 331 330 331 332 331 331 331 332 333 331 328 329 329 328 325 325 326 324 329 326 314 315 310 312
325 326 327 329 329 328 327 330 330 326 327 329 327 325 324 325 326 327 327 325 325 324 325 324 326 326 325 324 319 315 307 308 309
324 325 325 327 325 323 322 324 325 325 327 328 325 322 323 323 323 323 325 324 322 323 324 324 324 322 321 320 316 314 313 312 311
324 324 325 324 322 322 323 323 324 325 326 326 324 323 323 323 324 323 320 308 313 322 316 318 321 321 320 315 313 312 306 307 309
324 323 324 321 320 321 321 323 324 325 328 328 326 324 324 322 322 320 315 312 309 300 298 298 297 298 310 308 304 298 297 296 294
320 323 324 323 320 321 322 323 324 326 325 325 324 323 322 322 319 317 316 314 311 309 303 296 294 296 297 299 298 296 295 294 293

GFSFLT1_sfc_thetae_015.txt.gz
Theta_e
333 334 337 338 342 343 344 345 350 352 354 355 355 355 358 361 361 356 354 353 348 347 346 343 347 347 348 348 345 345 345 343 343
331 334 336 337 340 341 344 347 350 351 354 355 356 355 359 359 360 358 354 352 349 347 348 343 346 347 347 345 342 344 346 342 343
330 334 336 338 341 344 346 347 350 352 354 354 356 354 357 357 356 352 355 351 344 346 346 345 346 346 344 343 343 343 345 341 342
329 333 335 339 343 344 347 347 348 349 352 354 355 356 358 358 353 351 347 347 344 340 345 344 344 344 343 343 343 343 343 343 342
328 332 334 339 341 343 344 346 346 347 351 350 354 355 357 355 351 343 347 334 341 343 341 342 343 343 342 342 341 343 342 341 339
328 331 334 338 340 343 346 346 349 349 350 349 352 355 353 351 348 342 340 341 338 340 341 339 340 340 340 339 340 342 343 341 340
328 329 333 336 339 342 346 349 350 350 350 350 351 352 352 352 349 346 342 336 336 333 334 336 337 337 339 340 341 342 341 339 340
327 328 331 336 337 342 346 348 351 351 350 354 354 354 353 350 349 347 343 339 336 334 332 333 334 335 337 339 336 337 339 339 340
327 328 330 334 338 340 342 345 345 346 349 351 354 354 351 351 348 343 342 341 340 337 333 335 335 334 335 335 335 329 328 335 340
328 331 331 332 336 341 342 342 344 344 347 350 352 352 352 350 347 342 342 341 339 337 331 331 336 336 337 337 340 326 325 329 338
329 332 333 334 333 336 340 341 342 346 347 349 351 352 351 349 345 343 342 342 339 338 338 330 333 337 337 338 340 325 322 326 336
328 329 331 333 334 336 339 339 342 344 345 348 350 350 350 347 345 343 341 340 336 335 337 336 339 337 337 340 341 321 320 326 336
326 329 333 335 335 338 340 342 344 345 346 347 348 349 349 348 346 344 341 337 336 339 340 338 336 338 339 333 340 323 317 327 335
331 331 332 336 338 339 343 345 347 346 346 346 350 349 349 346 344 342 337 337 338 340 338 336 333 336 338 340 335 333 317 314 334
333 334 335 337 339 339 342 345 347 345 344 344 345 345 344 342 342 342 339 337 338 338 339 337 334 334 334 335 337 316 316 314 314
331 334 334 337 337 338 340 343 346 341 337 342 343 341 339 340 342 342 342 339 339 337 337 331 332 330 325 330 332 331 309 307 309
333 333 333 335 333 331 331 337 340 337 338 341 341 340 339 340 340 339 339 337 336 332 330 329 329 329 329 330 329 326 325 322 320
333 334 334 335 334 333 330 334 335 339 339 340 338 338 337 339 339 337 326 319 324 330 331 324 329 330 330 329 327 325 316 316 322
331 332 332 331 333 332 331 334 335 337 338 336 336 333 333 332 331 327 324 323 315 298 299 298 297 301 318 318 303 297 296 296 294
323 331 334 334 335 334 334 334 335 337 337 337 335 334 334 330 327 326 325 323 324 321 306 296 295 296 298 302 300 296 295 295 294

GFSFLT1_sfc_thetae_021.txt.gz
Theta_e
332 338 339 337 339 341 344 348 356 358 364 370 373 372 373 374 374 361 359 363 355 348 346 349 365 357 354 351 352 351 351 344 343
327 335 339 338 339 339 341 348 355 359 363 369 372 370 375 373 372 371 361 367 367 355 360 348 353 356 353 352 350 351 350 343 345
327 331 337 339 339 340 344 345 352 359 363 369 371 371 372 370 371 372 372 371 370 365 363 357 359 354 352 351 351 350 350 347 348
327 329 335 339 340 341 345 345 347 353 360 366 368 369 370 370 369 368 371 367 368 367 366 363 358 356 355 351 349 349 351 349 347
328 329 331 336 340 341 343 347 346 349 354 356 364 367 371 370 371 368 367 367 368 368 364 363 359 357 355 350 346 343 342 345 343
327 329 330 332 338 341 346 349 352 351 354 352 357 364 365 368 369 368 366 368 369 367 364 356 356 356 351 349 344 342 348 348 345
327 328 334 337 336 340 347 351 355 357 355 354 356 358 360 366 369 369 367 369 369 368 363 358 356 355 353 349 347 345 346 346 344
326 327 330 338 338 339 352 354 358 359 360 361 359 362 363 366 371 371 371 368 368 368 361 359 356 354 352 349 342 339 343 344 343
325 326 327 335 341 343 351 355 359 361 361 362 363 366 365 369 372 370 370 368 367 365 361 355 354 352 348 345 334 329 332 340 341
326 327 331 329 341 346 354 354 360 360 364 364 365 367 367 370 372 370 369 367 365 362 357 353 350 348 346 338 341 326 329 334 341
329 329 331 332 339 344 350 352 354 361 359 365 367 367 368 370 372 370 367 362 361 358 354 353 349 347 344 344 346 326 325 330 340
330 333 335 334 339 344 351 354 360 364 362 361 363 363 367 368 368 368 365 359 357 354 352 350 347 345 344 343 349 324 323 329 339
327 332 334 336 339 344 348 356 355 360 361 362 362 364 364 368 369 366 360 358 357 355 351 348 346 344 344 336 347 324 319 326 339
330 334 336 344 347 345 358 359 359 360 359 357 360 359 360 363 363 364 361 355 356 351 345 345 344 344 343 343 343 342 318 317 339
336 337 339 343 344 348 353 360 361 360 359 364 365 364 363 363 363 358 356 355 353 346 346 342 342 340 340 348 350 328 317 315 316
339 341 343 345 348 353 352 359 362 359 367 368 365 362 360 359 358 355 355 351 344 339 343 340 338 339 345 344 348 346 315 314 314
340 342 344 346 347 349 351 361 362 362 363 362 362 357 352 350 347 348 348 343 342 340 340 340 343 342 341 343 345 340 337 333 322
338 340 341 343 344 346 348 352 353 356 357 358 353 349 345 344 342 344 338 328 334 343 329 326 341 341 341 337 334 332 323 321 323
338 337 339 340 344 347 349 351 351 354 355 354 350 347 345 344 341 341 341 336 328 301 302 299 300 303 318 322 313 303 298 299 300
326 339 342 342 343 345 348 348 347 351 352 351 350 346 345 341 338 340 339 337 335 332 315 299 297 298 300 305 303 298 297 296 297

GFSFLT1_sfc_thetae_024.txt.gz
Theta_e
333 335 338 339 341 341 346 348 351 355 362 364 367 366 368 368 366 366 363 364 361 355 353 354 356 357 355 357 353 354 351 350 346
328 335 338 339 341 343 345 348 351 354 362 364 367 368 367 369 367 365 362 364 363 361 357 363 355 356 355 353 353 352 350 343 344
328 332 336 339 339 342 345 349 352 355 359 364 367 368 368 367 368 366 364 365 364 358 365 362 358 356 355 352 351 351 348 346 349
328 328 334 338 339 341 344 347 350 353 356 363 366 367 368 368 367 368 365 363 363 361 362 361 357 356 352 350 350 351 348 346 348
329 330 331 336 340 341 342 343 347 350 354 356 363 366 367 367 368 368 366 362 365 365 361 364 360 355 352 351 348 349 346 344 344
330 331 336 337 337 340 342 343 345 348 351 354 361 364 364 366 366 365 364 365 362 364 363 359 354 355 352 350 348 346 346 346 345
331 339 341 339 343 339 342 344 346 347 349 353 356 362 362 363 365 365 364 364 364 363 364 359 356 354 352 351 349 347 345 346 345
332 336 337 344 339 347 346 346 347 348 350 352 355 358 360 362 366 366 366 364 364 363 365 361 357 353 352 352 348 346 343 344 345
329 332 335 342 345 347 354 351 350 349 351 352 355 355 358 362 364 367 365 364 364 364 364 362 358 353 352 350 346 334 333 342 344
330 330 332 334 344 347 350 356 355 351 352 357 356 359 359 361 363 365 365 365 363 363 362 360 357 352 351 349 347 328 329 334 344
329 333 333 338 333 344 351 351 354 360 356 358 360 359 362 364 365 365 365 364 363 361 363 360 354 352 350 347 345 325 325 331 340
328 331 337 337 334 332 348 349 356 359 360 358 359 359 366 364 367 367 365 364 362 362 360 357 352 348 346 344 341 323 324 328 334
326 328 331 337 334 333 339 352 354 359 358 360 358 361 362 368 370 367 366 365 363 363 358 353 353 349 347 336 339 321 320 326 337
327 331 329 335 350 349 353 355 356 358 359 359 362 365 366 369 368 368 368 364 361 358 354 351 349 346 342 340 337 336 318 318 337
338 342 337 342 352 363 361 360 364 360 360 365 368 366 366 367 368 364 362 359 354 354 350 346 345 341 339 340 342 328 316 316 320
337 340 346 345 354 362 365 371 365 361 366 366 365 363 363 364 364 362 359 354 349 346 346 340 338 337 336 337 347 345 315 313 315
341 348 349 353 353 354 357 364 364 365 363 365 363 363 361 358 351 349 348 344 342 341 340 339 338 338 340 344 343 337 331 328 324
344 347 349 353 353 354 359 363 362 364 363 362 358 353 351 350 347 345 333 320 325 340 324 326 341 345 343 339 338 337 328 329 333
341 341 345 344 343 346 351 353 354 358 360 355 350 345 344 342 343 339 332 326 319 301 302 300 300 305 325 321 312 304 302 300 301
330 340 345 346 348 350 351 352 353 356 356 354 350 347 344 341 340 340 339 336 331 320 310 300 298 299 305 306 302 299 298 298 300

GFSFLT1_sfc_thetae_027.txt.gz
Theta_e
325 329 329 329 331 336 339 341 346 353 353 352 356 356 355 356 355 358 351 351 347 342 346 344 345 346 344 341 338 344 340 337 336
325 326 330 330 331 335 339 340 345 348 355 354 356 358 357 357 355 355 357 352 352 347 344 347 346 348 345 343 339 340 339 337 335
323 327 327 331 332 334 339 342 345 349 356 355 358 356 360 360 358 356 356 354 351 351 345 348 347 348 346 346 342 341 339 336 339
325 326 330 331 334 335 340 342 344 347 354 356 358 359 357 359 360 359 356 356 353 351 350 349 348 348 347 344 344 343 341 336 336
324 326 329 333 335 336 338 341 343 346 355 355 358 360 360 358 359 361 357 354 354 355 349 351 350 348 347 344 342 343 340 336 338
325 324 323 333 333 335 337 341 342 345 351 356 359 360 361 360 359 359 359 356 356 356 353 351 350 350 347 344 343 342 340 337 335
322 324 322 326 333 334 337 340 343 344 347 355 358 360 359 359 359 360 360 360 356 356 356 352 349 348 346 344 343 342 340 338 337
321 325 325 325 332 333 335 336 340 344 347 348 356 358 358 357 359 361 360 360 359 355 355 354 351 347 346 345 343 342 339 339 338
320 321 329 328 329 334 335 335 338 341 344 347 350 354 355 357 357 359 359 359 358 358 354 356 351 346 345 344 345 336 335 338 337
319 319 328 329 329 335 336 337 338 339 342 345 347 349 354 355 356 357 358 358 357 356 355 356 354 348 345 344 345 331 332 336 337
316 321 324 326 334 334 338 341 340 341 342 344 345 347 350 354 355 356 358 358 356 356 357 356 354 349 347 346 345 329 327 332 334
315 318 317 323 328 335 339 342 345 342 342 345 345 347 348 352 355 356 358 357 357 356 356 353 352 350 348 346 338 323 323 327 332
324 322 319 322 326 326 338 337 349 345 343 345 345 346 351 353 355 356 358 358 357 356 355 354 350 346 345 336 336 322 319 324 330
324 326 322 320 324 324 327 339 350 348 346 344 350 352 354 357 358 359 360 358 358 356 352 349 348 345 342 340 336 327 317 318 332
323 327 335 329 324 331 338 341 349 348 349 351 351 357 358 361 361 361 360 358 354 350 347 347 343 341 338 338 337 326 316 315 320
332 334 343 350 350 352 355 352 350 349 354 358 358 358 358 359 358 358 355 350 347 345 341 341 338 337 336 336 337 333 317 314 316
340 342 342 345 348 349 351 355 357 357 357 357 357 356 353 349 348 346 345 345 344 340 338 337 336 335 334 334 334 325 321 319 318
339 341 344 348 350 350 351 354 355 356 356 356 352 347 344 343 339 330 321 311 319 333 318 329 337 336 335 334 331 327 321 320 323
336 339 341 340 342 345 346 349 348 348 349 348 344 340 341 336 332 327 323 319 313 302 301 300 302 310 324 313 312 308 304 307 310
330 336 338 340 340 341 342 343 347 345 343 343 341 338 338 335 330 328 326 324 319 313 309 301 298 299 304 308 305 302 299 298 300

GFSFLT1_sfc_thetae_030.txt.gz
Theta_e
325 325 328 330 332 335 336 338 343 346 345 346 349 348 350 351 350 349 349 344 346 348 347 345 345 344 340 336 338 337 335 333 333
324 325 326 329 332 335 336 338 342 346 346 345 350 350 349 349 351 351 351 348 344 344 344 343 345 343 341 337 336 339 336 333 332
325 325 326 328 329 333 337 338 342 347 348 346 348 352 352 351 350 351 353 350 347 343 343 344 343 344 341 339 335 338 336 333 333
324 325 326 328 329 332 336 339 342 347 348 347 349 351 352 351 352 350 350 353 350 348 343 344 342 345 342 341 337 336 337 333 334
325 326 325 329 330 330 333 338 340 344 350 349 351 353 353 352 353 353 351 350 353 350 348 345 345 344 343 342 340 338 338 335 335
323 322 322 325 327 329 332 336 339 343 349 351 352 353 353 354 354 354 353 352 351 352 349 347 346 345 344 342 342 340 339 338 334
321 322 322 323 326 330 332 336 338 342 346 352 353 354 353 352 353 356 356 354 352 351 352 346 347 346 345 344 341 341 340 338 334
321 321 322 323 325 330 332 336 338 341 345 351 353 354 354 353 354 355 357 356 354 352 351 352 347 346 345 344 342 340 339 338 336
318 316 320 320 326 330 333 336 338 341 343 350 353 353 354 356 356 355 355 356 356 353 352 351 348 346 344 341 343 334 335 338 336
318 317 318 322 326 330 334 336 339 340 343 348 352 352 354 355 355 355 356 356 356 355 352 351 348 345 344 342 343 330 331 335 338
318 317 319 324 327 329 334 336 339 342 343 345 350 351 353 354 355 354 356 356 355 355 355 351 350 346 345 344 344 327 328 333 339
309 314 316 320 327 331 331 334 336 339 340 343 344 348 350 353 354 353 355 354 354 354 355 353 352 349 346 344 344 325 324 330 336
319 319 317 315 324 331 336 337 335 336 337 340 342 344 346 352 353 354 353 355 355 355 355 353 353 350 348 341 344 322 320 330 335
319 326 324 318 314 320 333 338 338 335 336 337 341 345 346 347 352 353 354 356 357 355 354 353 352 347 346 343 337 325 317 319 331
320 322 331 327 319 316 318 334 342 337 336 340 342 342 343 346 350 353 354 357 356 354 353 349 345 341 339 339 335 324 314 315 319
338 340 342 343 337 343 343 330 343 341 341 341 344 344 346 349 351 353 357 356 354 350 348 345 340 339 337 335 335 328 315 313 315
338 341 343 345 345 344 344 345 343 342 345 345 348 347 354 356 356 355 356 354 352 348 343 340 339 336 334 334 335 331 324 320 317
337 337 339 342 344 346 346 347 347 352 353 354 353 354 353 351 347 339 322 320 333 339 327 337 337 336 336 334 331 326 319 318 321
334 336 338 338 338 338 341 343 342 345 349 350 348 340 338 335 330 326 324 322 316 306 305 310 310 316 325 318 318 307 304 302 303
327 333 335 335 335 337 339 341 340 341 340 341 341 335 332 330 328 328 326 324 323 317 313 305 299 300 304 308 308 302 300 300 300

GFSFLT1_sfc_thetae_033.txt.gz
Theta_e
323 327 329 330 331 331 334 337 339 341 341 343 347 348 348 348 347 346 345 342 342 344 346 347 348 348 344 336 336 335 332 331 330
322 324 328 329 331 331 333 335 338 341 342 343 346 348 348 347 348 347 345 343 343 345 346 348 345 347 343 337 335 335 332 331 330
322 324 326 328 330 331 334 335 338 341 343 343 345 348 348 348 348 348 347 346 343 343 344 344 344 344 342 337 334 336 334 330 330
323 324 325 327 329 331 333 335 337 340 342 343 344 346 347 348 348 349 349 348 346 344 343 342 342 343 341 338 333 336 335 332 331
324 326 326 327 328 330 332 334 336 340 342 343 344 347 347 346 347 347 348 349 349 346 342 342 341 343 341 339 337 333 336 334 334
321 325 325 325 326 327 329 333 335 339 342 344 344 345 347 347 347 348 347 347 350 349 346 342 342 342 341 340 338 335 335 336 334
318 321 322 325 325 326 327 332 335 338 343 345 345 346 346 346 347 348 348 348 347 349 350 346 342 342 342 342 341 338 337 335 335
317 318 321 323 325 325 326 329 334 337 342 346 346 346 346 347 349 349 350 350 349 348 349 349 346 343 342 343 341 341 338 337 335
315 317 320 320 324 327 328 329 333 337 340 346 348 346 347 349 349 350 351 351 351 349 348 349 346 344 343 342 342 334 334 339 337
314 317 321 318 319 323 328 330 334 335 338 343 348 348 348 349 349 349 350 352 352 350 348 348 346 345 344 342 343 329 330 335 338
313 316 315 316 319 320 327 331 334 337 339 342 346 348 349 350 350 349 350 351 352 352 351 349 348 344 344 343 343 327 326 333 339
314 316 316 318 322 323 325 330 334 336 337 340 345 346 348 350 352 351 351 350 351 353 353 351 350 347 344 343 343 324 323 329 338
311 309 314 317 323 326 325 328 334 336 336 339 343 347 348 351 352 352 352 352 352 353 354 353 351 349 347 340 344 321 320 328 338
316 319 318 313 318 326 329 328 333 335 337 338 342 346 350 350 352 352 353 353 354 354 353 353 351 350 350 345 343 327 317 323 338
317 320 326 319 313 314 322 330 330 331 334 339 342 343 344 348 350 352 352 352 353 354 353 352 351 351 346 345 338 321 315 319 325
336 337 338 339 335 333 336 320 333 329 332 336 337 338 341 342 346 350 352 351 352 353 353 351 349 346 341 338 336 327 315 315 315
336 338 340 341 341 339 340 344 339 335 336 333 332 335 337 340 342 346 350 352 353 353 351 350 344 341 338 336 334 333 325 321 320
335 337 338 339 342 342 342 343 342 344 345 339 334 336 335 339 343 343 332 317 336 352 335 344 341 338 338 334 333 331 319 319 321
332 333 334 336 336 339 341 340 341 342 342 341 344 341 335 331 328 326 324 324 320 308 313 313 313 315 327 327 317 307 305 301 304
326 331 331 333 335 337 338 335 336 335 338 337 333 330 329 329 328 330 330 328 328 326 320 310 305 302 305 312 311 301 299 300 300

GFSFLT1_sfc_thetae_036.txt.gz
Theta_e
326 328 331 332 333 333 333 338 340 340 341 341 344 345 345 346 347 346 346 345 345 345 346 348 351 351 350 345 342 342 338 336 334
320 324 329 330 332 333 333 335 339 339 341 342 343 345 346 347 348 347 346 346 346 346 348 349 349 351 349 344 342 340 338 336 334
320 322 325 329 331 332 333 335 338 340 341 341 343 346 347 347 347 348 348 347 345 346 347 349 348 349 349 343 341 340 338 336 336
319 321 323 326 329 332 333 334 336 339 340 341 342 346 347 347 347 348 348 347 347 346 347 348 347 348 347 344 340 339 338 336 336
318 322 324 325 328 331 332 332 334 337 339 341 342 345 347 347 348 348 347 347 348 348 346 346 347 347 346 345 341 340 338 336 336
318 321 322 324 326 328 330 332 334 335 338 340 342 344 345 346 347 347 347 348 349 348 346 345 345 346 345 344 342 338 340 339 338
312 316 321 323 324 327 329 331 333 335 338 341 342 343 344 344 346 347 347 349 350 350 348 345 344 344 345 345 343 341 339 339 338
315 317 319 321 323 325 327 330 333 335 338 341 343 343 343 344 346 347 347 347 348 350 350 348 345 344 344 345 343 342 340 339 338
312 316 319 321 324 326 325 328 332 335 337 341 343 343 342 345 346 347 347 348 347 347 349 350 348 344 344 343 343 335 333 339 339
307 312 318 319 321 324 326 327 332 334 337 342 343 343 343 344 346 346 347 348 348 347 346 348 349 347 345 344 345 329 330 334 341
307 308 315 319 321 324 327 329 330 334 337 340 343 343 344 345 346 346 348 348 348 348 348 347 347 347 347 346 345 327 326 333 342
308 310 313 318 322 324 325 327 330 334 336 339 343 344 344 346 348 347 347 348 349 350 350 349 348 349 347 346 346 325 324 329 342
312 313 316 317 319 322 322 325 329 333 334 337 340 345 346 348 349 348 348 348 349 351 352 351 350 349 349 341 347 324 321 328 341
314 313 313 316 321 325 326 328 332 332 334 336 340 344 348 349 350 350 350 350 351 351 351 352 351 350 350 347 345 340 318 320 341
317 323 325 320 315 317 324 330 334 334 334 339 342 344 347 348 350 351 352 351 351 351 351 351 351 350 348 348 348 329 317 318 328
335 337 339 337 337 340 343 335 331 330 333 337 339 341 342 348 350 352 353 352 352 351 352 351 350 349 346 346 347 338 315 316 320
335 336 337 339 341 341 342 344 343 342 346 341 335 336 338 341 344 347 352 353 352 352 351 351 350 348 346 345 337 332 329 330 330
334 335 337 339 339 338 341 343 344 345 346 341 335 336 337 340 340 327 324 322 320 329 320 331 350 349 346 335 330 328 324 326 328
331 330 333 333 333 333 334 337 339 340 340 343 337 332 330 329 328 329 330 330 325 309 311 310 309 310 320 329 319 312 312 310 310
325 330 333 333 331 333 334 333 331 332 337 337 333 330 330 330 329 328 326 325 324 322 321 308 309 311 314 311 311 308 303 301 301

GFSFLT1_sfc_thetae_042.txt.gz
Theta_e
335 338 341 342 344 346 347 347 353 356 362 363 362 363 367 369 370 359 359 364 358 356 355 355 363 363 365 367 367 367 368 362 359
328 335 339 341 344 346 348 350 355 359 362 365 366 363 368 369 368 367 360 368 369 360 367 357 361 362 365 366 366 368 367 361 359
327 332 338 340 342 345 347 350 354 358 363 365 365 362 365 364 367 369 369 369 369 369 368 366 362 363 363 365 366 368 367 362 361
328 332 336 340 342 344 347 349 350 354 358 362 362 363 365 366 366 365 367 365 369 370 370 372 367 367 364 363 365 367 366 364 360
328 331 334 337 339 343 345 347 349 350 353 355 358 362 366 366 368 367 365 367 368 370 371 371 371 370 366 363 364 366 365 362 359
326 329 332 334 336 338 343 346 352 349 350 352 355 360 359 362 365 365 366 368 368 369 370 371 369 370 369 366 364 364 364 363 361
323 326 330 332 334 337 340 346 353 356 351 351 352 354 356 361 365 366 366 368 369 370 371 371 371 371 372 370 366 364 362 362 364
321 324 328 332 335 336 339 343 353 356 353 356 354 359 358 360 365 367 368 368 369 370 370 370 371 371 371 369 367 359 366 365 363
320 321 324 328 334 338 341 345 348 351 354 355 357 359 358 362 365 367 368 368 369 370 369 370 371 369 369 368 362 343 340 358 363
321 323 324 326 332 337 341 342 347 349 355 355 357 359 361 363 365 366 367 367 368 369 369 369 369 369 369 368 368 334 333 340 363
322 323 325 327 328 331 339 342 340 349 350 357 358 359 361 363 364 365 367 368 367 368 368 368 368 367 368 367 367 332 329 336 360
324 326 327 329 329 329 332 334 339 345 350 351 354 359 360 362 364 364 366 365 366 365 365 363 363 364 365 367 368 328 324 334 356
325 326 327 327 329 330 331 334 337 341 348 353 356 358 360 362 364 366 365 365 365 364 363 361 359 362 364 351 364 333 321 330 353
332 332 331 332 332 332 338 339 343 346 348 350 357 356 357 361 364 368 365 367 367 366 364 364 363 359 360 363 361 360 319 319 351
335 335 333 329 333 334 338 346 347 355 355 358 360 359 356 360 364 360 358 367 366 366 366 364 362 356 353 357 359 337 323 318 322
337 338 334 336 338 338 346 349 351 351 362 363 358 358 360 361 364 362 365 363 363 359 361 356 356 355 351 352 356 356 325 319 316
340 337 342 346 344 346 349 353 354 355 358 360 359 357 359 361 361 360 361 359 360 357 356 355 354 353 352 350 350 349 352 333 325
341 340 347 349 350 350 354 354 356 356 357 358 356 357 358 359 359 359 360 360 349 357 362 342 353 354 354 353 353 354 336 334 337
344 345 347 351 352 349 350 348 348 359 361 358 357 356 354 353 355 357 357 354 341 306 305 301 300 309 329 353 312 308 307 306 308
332 338 341 345 346 348 348 349 350 345 352 358 356 353 350 349 345 351 351 351 341 336 323 304 300 300 299 302 305 303 303 302 303

GFSFLT1_sfc_thetae_045.txt.gz
Theta_e
332 335 340 342 344 344 344 347 352 355 363 367 371 370 370 371 371 360 358 362 357 355 354 354 372 373 370 370 369 369 374 364 362
330 333 338 341 344 345 345 348 354 356 362 368 370 370 371 372 372 369 362 364 368 360 367 356 365 366 368 370 371 373 374 361 366
328 333 337 340 343 346 348 348 353 358 362 367 369 369 371 371 372 373 370 369 370 367 368 372 368 368 366 368 371 372 374 365 368
326 329 335 338 342 345 349 350 350 355 360 363 368 369 370 371 371 372 374 370 370 371 374 377 371 373 369 370 369 371 372 370 368
326 330 333 337 341 344 346 350 350 352 356 358 366 368 369 370 372 373 371 371 371 374 373 376 376 372 372 370 369 371 371 368 362
328 331 333 335 339 342 344 347 354 354 356 355 358 365 365 368 370 371 370 371 373 373 374 374 374 373 372 371 369 369 372 370 368
327 331 333 335 337 340 344 348 355 357 354 354 357 360 362 366 370 370 370 372 374 374 375 374 374 374 373 373 372 369 370 369 369
324 326 328 331 333 336 340 348 356 359 356 359 357 361 363 365 370 373 373 372 372 374 374 374 375 375 374 374 372 366 368 368 368
321 322 327 329 332 336 338 343 354 357 360 358 361 362 362 366 369 372 372 373 372 374 373 374 375 374 373 372 368 346 340 358 366
321 324 325 326 328 333 339 341 348 352 359 362 362 361 366 366 368 368 372 373 373 372 372 374 373 373 373 372 373 339 335 341 365
324 325 326 327 328 330 335 338 341 350 349 362 363 364 361 368 368 369 371 372 372 373 373 373 372 373 374 373 372 337 329 335 361
325 326 327 328 329 329 332 332 340 344 349 354 361 362 364 363 369 369 370 370 372 373 372 372 371 372 372 371 372 333 328 334 358
330 332 334 335 333 330 331 334 333 337 341 357 360 362 365 368 370 370 369 371 372 373 372 371 367 369 372 360 371 334 324 335 360
334 336 337 338 338 335 339 339 342 346 346 350 359 361 364 369 370 371 372 373 374 373 371 367 369 368 370 371 367 364 321 322 356
333 335 338 340 339 338 338 344 352 356 357 359 368 366 365 368 371 367 366 374 373 373 371 369 369 367 366 366 372 341 322 326 330
333 336 341 343 340 345 347 350 355 357 363 372 369 369 368 370 372 370 370 370 371 365 369 360 360 358 358 357 360 365 328 323 321
331 334 341 344 342 346 348 353 355 363 365 371 371 369 370 370 370 369 369 364 363 360 358 358 356 356 354 356 357 358 360 357 341
331 334 343 345 349 348 350 355 358 359 362 366 363 363 361 365 362 363 364 359 347 359 354 338 357 357 357 355 354 354 331 341 357
332 337 347 348 352 356 356 356 359 364 362 362 361 358 357 356 357 359 360 354 343 305 306 301 301 300 321 351 319 311 312 311 312
330 344 345 345 351 354 354 351 347 356 364 362 363 365 364 356 351 358 358 359 356 351 317 302 300 299 300 299 297 300 299 297 303

GFSFLT1_sfc_thetae_048.txt.gz
Theta_e
331 334 340 342 344 343 343 344 347 349 356 359 362 361 363 362 362 364 355 358 358 354 356 357 365 363 365 366 365 365 370 368 365
330 331 339 342 344 344 343 344 346 348 355 360 363 362 364 365 361 362 361 357 362 364 361 360 371 365 364 366 368 367 367 363 365
328 333 336 341 343 345 345 345 346 350 355 360 363 365 365 365 365 362 361 364 358 360 366 368 372 366 366 366 365 368 366 365 365
326 331 335 339 342 346 347 346 346 349 352 360 363 365 366 365 366 365 363 359 362 361 364 366 372 370 365 364 365 365 367 364 363
326 330 336 339 342 345 347 347 346 348 351 354 362 365 366 365 367 368 366 362 362 364 366 368 367 369 367 365 363 365 365 363 359
328 333 336 338 340 344 346 348 348 348 351 352 357 365 365 366 366 367 367 366 364 365 364 367 367 370 366 364 364 363 364 364 363
328 332 332 337 339 341 347 349 350 352 351 353 356 360 364 364 366 366 367 368 368 366 367 364 367 367 367 367 365 364 363 364 364
328 331 334 340 338 339 346 350 352 354 354 355 356 357 360 362 365 368 368 368 368 369 367 367 366 367 367 366 366 364 363 362 364
328 330 332 336 340 344 347 349 354 354 355 357 358 358 358 363 364 365 367 367 367 368 368 367 368 367 367 366 365 348 343 357 362
326 325 329 335 338 346 357 350 355 356 355 358 360 358 362 363 364 364 366 367 367 366 367 368 367 367 368 366 367 341 337 342 361
323 325 327 333 330 334 343 339 341 357 359 360 359 361 361 365 365 364 366 367 367 367 366 367 367 366 367 367 367 340 333 337 357
328 332 334 334 331 331 342 339 342 352 353 358 361 359 360 362 366 365 365 366 366 367 367 367 367 368 367 366 366 336 332 334 353
333 336 339 340 340 339 341 343 339 355 350 358 357 359 360 365 363 365 365 365 366 369 369 366 367 367 368 357 367 340 328 334 359
334 336 337 342 343 342 347 351 350 362 364 356 360 361 364 364 365 363 367 368 368 368 368 367 366 366 367 368 364 364 325 323 361
331 335 336 340 344 346 350 352 353 354 360 366 376 365 365 365 367 363 365 367 368 369 368 365 365 364 365 366 368 341 326 320 327
328 332 337 338 345 350 353 352 369 363 364 375 376 375 369 367 367 367 366 367 366 366 367 364 363 361 361 361 365 366 327 319 319
327 330 334 336 341 347 352 366 366 368 371 371 372 372 370 369 368 366 367 367 367 365 364 363 361 360 358 361 361 360 365 342 332
324 328 335 337 344 350 355 366 369 367 370 369 366 369 367 367 366 364 366 354 347 362 345 337 362 359 360 357 357 352 331 336 354
321 324 334 335 347 348 353 360 360 364 368 371 369 365 364 360 360 364 363 344 337 304 304 301 300 303 333 328 311 304 303 303 303
319 323 331 335 343 349 353 358 354 357 365 370 367 366 362 359 352 361 360 353 347 333 314 300 299 299 301 303 300 300 300 301 301